Regional Weather Roundup
Issued by NWS

Home | Current Version | Previous Version | Graphics & Text | Print | Product List | Glossary On
Versions: 1 2 3 4 5 6 7 8 9 10 11 12 13 14 15 16 17 18 19 20 21 22 23 24 25 26 27 28 29 30 31 32 33 34 35 36 37 38 39 40 41 42 43 44 45 46 47 48 49 50
759
ASUS43 KLSX 100810
RWRMO

WEATHER SUMMARY FOR MISSOURI
NATIONAL WEATHER SERVICE SPRINGFIELD MO
200 AM CST WED FEB 10 2016

NOTE: "FAIR" INDICATES FEW OR NO CLOUDS BELOW 12,000 FEET WITH NO
       SIGNIFICANT WEATHER AND/OR OBSTRUCTIONS TO VISIBILITY.
       CURRENT SKY AND/OR WEATHER CONDITIONS ARE NOT AVAILABLE FOR
       CHILLICOTHE AND FARMINGTON.

MOZ001>031-035>038-043-044-053-054-100900-
...NORTHERN AND WESTERN MISSOURI...

CITY           SKY/WX    TMP DP  RH WIND       PRES   REMARKS
KANSAS CTY INT CLOUDY    19  12  74 SW5       30.21F WCI  12
KANSAS C DTWN  MOCLDY    22  11  62 SW5       30.23F WCI  16
LEE`S SUMMIT   PTCLDY    20   9  62 W3        30.22F
ST JOSEPH      CLOUDY    18  13  80 S3        30.22F
CHILLICOTHE      N/A     20  12  71 NW3       30.21F
KIRKSVILLE     PTCLDY    14   5  67 NW6       30.16F WCI   5

$$
MOZ066>068-077>081-088>096-101>105-100900-
...SOUTHWEST MISSOURI...

CITY           SKY/WX    TMP DP  RH WIND       PRES   REMARKS
SPRINGFIELD    CLEAR     21   7  54 NW10      30.20S WCI  10
JOPLIN         CLEAR     19   8  62 W5        30.27S WCI  12

$$
MOZ032>034-039>042-045>050-055>058-069>072-100900-
...CENTRAL MISSOURI...

CITY           SKY/WX    TMP DP  RH WIND       PRES   REMARKS
COLUMBIA       PTCLDY    17   8  67 NW12      30.19R WCI   4
JEFFERSON CITY PTCLDY    18   7  62 NW6       30.22S WCI  10
ROLLA          PTCLDY    16   6  65 W8        30.15S WCI   5
SEDALIA        CLEAR     20  10  65 NW6       30.22F WCI  12
WHITEMAN AFB   CLEAR     19  10  67 NW6       30.21F WCI  11
WARRENSBURG    CLEAR     23  12  63 W7        30.22F WCI  15
OSAGE BEACH    CLEAR     19   5  53 NW5       30.21S WCI  13

$$
MOZ051-052-059>065-100900-
...EAST CENTRAL MISSOURI...

CITY           SKY/WX    TMP DP  RH WIND       PRES   REMARKS
ST LOUIS INTL  FLURRIES  19   6  57 NW16G26   30.15R WCI   4
SPIRIT OF STL  PTCLDY    17   6  62 NW15      30.17R WCI   2
ST CHARLES     CLEAR     17   6  62 NW13      30.16S WCI   4

$$
MOZ072>076-082>087-097>100-106>115-100900-
...SOUTH CENTRAL AND SOUTHEAST MISSOURI...

CITY           SKY/WX    TMP DP  RH WIND       PRES   REMARKS
CAPE GIRARDEAU CLEAR     20   8  60 NW12      30.15R WCI   8
FARMINGTON     PTCLDY    17   6  62 NW7       30.14R WCI   8
POPLAR BLUFF   CLEAR     23   7  50 NW12      30.18R WCI  12
WEST PLAINS    CLEAR     21   3  45 NW13G23   30.16S WCI   9

$$




USA.gov is the U.S. government's official web portal to all federal, state and local government web resources and services.